Погода в Нахчиване

Погода в Нахчиване : погода сейчас, прогноз погоды и архив. Всё, что Вы хотите узнать о погоде в Нахчиване!

Поиск расширенной информации на нашем сайте:

Другие новости

Новости СМИ2

Главная страница сайта

Новости сайта

03.07.2017

Напоминаем, что на нашем специализированном сайте Метеоцентр.Азия вы можете получить высокодетализированные автоматические прогнозы погоды по пунктам России, СНГ и мира в авиационном формате (включающие направление и скорость ветра, видимость, явления погоды, количество и форму облачности, нижнюю и верхнюю границу облачности).


Погода в Нахчиване - сегодня

Время (UTC), дата Ветер
(°,м/с) 
Видим.   Явления Облачность Т
(°С)
Тd
(°С)
f(%) Тe
(°С)
Pmin
(гПа)
dP
(гПа)
Po
(мм)
O2
(г/м3)
Тmin Tmax R s Состояние
почвы
00 19.05.18 тихо ()   н/о    ясно 
+12.7 +7.8 72 +13  1019.2  0.5  689  264           
03 19.05.18 тихо ()   20000 м    ясно 
+11.8 +7.7 76 +12  1020  0.1  689  265           
09 19.05.18 тихо ()   20000 м    5/3 1000 м верхняя 
[Cu med, cong|Ci fib]
+25.6 +7 31 +26  1014.6  -0.1  689  252           
12 19.05.18 тихо ()   20000 м    8/3 1000 м средняя, верхняя 
[Cu med, cong|Ac trans|Ci fib]
+28.6 +7.3 26 +29  1011.5  -1.8  687  249           
15 19.05.18 130 (ЮВ) 20000 м    8/3 600 м кучево-дожд., средняя, верхняя 
[Cb cap|Ac trans|Ci fib]
+28 +6.7 26 +28  1011.1  -0.6  687  250           
21 19.05.18 360 (С) н/о    5/3 1000 м средняя 
[Cu med, cong|Ac trans]
+17.5 +10.2 62 +21  1015.6  0.5  687  258           
00 20.05.18 100 (В) н/о    5/3 1000 м средняя 
[Cu med, cong|Ac trans]
+16 +9.9 67 +20  1016.1  0.2  687  260           
03 20.05.18 090 (В) 20000 м    8/0 средняя, верхняя 
[Ac trans|Ci fib]
+13.3 +10.4 83 +17  1017.7  0.7  688  262           
09 20.05.18 тихо ()   20000 м    8/3 1000 м средняя 
[Cu med, cong|Ac trans]
+24.7 +8.8 36 +26  1015.4  0.9  689  253           
12 20.05.18 270 (З) 20000 м  слаб. ливневой дождь  9/5 600 м кучево-дожд., средняя 
[Cb cap|Ac trans]
+24.7 +10.5 41 +28  1012.7  -2.3  687  252           
18 20.05.18 тихо ()   н/о  {ливн. осадки}  8/3 600 м кучево-дожд., средняя 
[Cb cap|Ac trans]
+17.4 +12.7 74 +24  1016  0.7  688  258    +26.6  0.0     
21 20.05.18 тихо ()   н/о    8/3 600 м кучево-дожд., средняя 
[Cb cap|Ac trans]
+15.8 +12.5 81 +22  1017.1  0.4  688  260           
00 21.05.18 тихо ()   н/о    8/3 600 м кучево-дожд., средняя 
[Cb cap|Ac trans]
+14.4 +11.8 84 +20  1018  0.4  688  261           
03 21.05.18 тихо ()   20000 м    8/3 600 м кучево-дожд., средняя 
[Cb cap|Ac trans]
+14.4 +11.8 84 +20  1017.1  -0.8  688  261           
06 21.05.18 180 (Ю) 20000 м  {ливн. осадки}  9/4 600 м кучево-дожд., средняя 
[Cb cap|Ac trans]
+17.8 +14.5 81 +28  1017.2  689  257  +14.3        сухая 
09 21.05.18 130 (ЮВ) 20000 м    9/4 600 м кучево-дожд., средняя 
[Cb cap|Ac trans]
+23.2 +14.6 58 +34  1014.1  -0.8  688  252           
12 21.05.18 180 (Ю) 20000 м    9/4 600 м кучево-дожд., средняя 
[Cb cap|Ac trans]
+26.4 +10.9 38 +31  1011.8  -1.3  687  250           
15 21.05.18 220 (ЮЗ) 20000 м    9/3 600 м кучево-дожд., средняя 
[Cb cap|Ac trans]
+21.8 +12.1 54 +22  1013.2             
21 21.05.18 360 (С) н/о    8/3 600 м кучево-дожд., средняя 
[Cb cap|Ac trans]
+16.2 +12.8 80 +24  1017.1  0.4  688  259           
00 22.05.18 360 (С) н/о    8/3 600 м кучево-дожд., средняя 
[Cb cap|Ac trans]
+15 +12.3 84 +22  1017.7  0.2  688  260           
03 22.05.18 тихо ()   20000 м    8/3 600 м кучево-дожд., средняя 
[Cb cap|Ac trans]
+13.9 +11.7 87 +19  1018.4  0.2  689  262           
06 22.05.18 тихо ()   20000 м    8/3 600 м кучево-дожд., средняя 
[Cb cap|Ac trans]
+20.8 +13.7 64 +30  1017.2  1.3  686  254  +13.8         
09 22.05.18 180 (Ю) 20000 м    8/3 600 м кучево-дожд., средняя, верхняя 
[Cb cap|Ac trans|Ci fib]
+24.8 +12.5 46 +31  1015.4  -0.5  689  252           
12 22.05.18 180 (Ю) 20000 м    8/3 1000 м средняя, верхняя 
[Cu med, cong|Ac trans|Ci fib]
+28 +9 30 +30  1012.5  -1.7  688  250           
21 22.05.18 090 (В) н/о  {гроза, ливн. осадки}  9/5 600 м кучево-дожд., средняя 
[Cb cap|Ac trans]
+18.2 +13.2 73 +27  1018  689  258           
Время (UTC), дата Ветер
(°,м/с) 
Видим.   Явления Облачность Т
(°С)
Тd
(°С)
f(%) Тe
(°С)
Pmin
(гПа)
dP
(гПа)
Po
(мм)
O2
(г/м3)
Тmin Tmax R s Состояние
почвы

Для получения пояснительной информации подведите курсор к названию столбца.

ПОГОДА в Нахчиване - архив

Всё, что Вы хотите узнать о погоде в Нахчиване - удобно и подробно!

Выберите нужную дату (начиная с 1 января 2015* года) и нажмите кнопку "Найти".
Будут отображены архивные сводки погоды по пункту Нахчиван, начиная с указанной даты.


Отображать данные в формате CSV (для использования в таблицах Excel)


Внимание! Наш архив погоды предназначен исключительно для личного некоммерческого использования в познавательных целях. Если Вам необходимы официальные справки о состоянии погоды (для производственных, юридических, коммерческих и т.п. целей), обращайтесь в органы Росгидромета.

*Примечание: данная дата относится к архиву по метеостанциям СССР (Россия, СНГ, Балтия).
Архив по метеостанциям Зарубежной Европы и Азии (кроме Китая) хранится 10 дней, по другим регионам земного шара (Китай, Африка, Америка, Австралия, Океания) - 1 день.

Нахчиван - район местоположения метеостанции


Название, широта, долгота, высота метеостанции:
Нахчиван 39.2°ш. 45.4°д. 873 м над ур. моря [Азербайджан]

Дополнительная информация

В oтличие oт бoльшинства пoгoдных сайтoв мы публикуем пoдрoбную метеoинфoрмацию в детальнoм прoфессиoнальнoм фoрмате.

Характеристики температуры и влажнoсти вoздуха измеряются на высoте 2 м в тени вдали oт зданий и деревьев.
Скoрoсть ветра измеряется на высoте 10 м (на урoвне рoста челoвека скoрoсть ветра ниже в 1.5-2 раза). Если метеoстанция нахoдится в гoрoде или в лесу, тo скoрoсть ветра занижена на 2-4 м/с пo сравнению с oткрытым местoм. Скoрoсть ветра над акватoриями крупных рек и oзёр, а также на вершинах хoлмoв на 2-5 м/с выше, чем в oбычных услoвиях.
Атмoсфернoе давление в разных тoчках местнoсти мoжет значительнo oтличаться oт давления на метеoстанции, в зависимoсти oт услoвий рельефа (при пoдъёме на 10 м давление пoнижается примернo на 1 мм рт.ст.).